Simultaneous Nadir Overpasses (SNOs) Predictions

Prediction of SNOs between METOP-A and TERRA Satellite Orbit:

Table of predicted SNOs for the next 14.0 days since TLE Epoch: 12/2/2016
Index Date (METOP-A) Time (METOP-A) Lat,Lon (METOP-A) SZA (METOP-A ) Date (TERRA) Time (TERRA) Lat,Lon (TERRA) SZA (TERRA ) Distance(km) Time Diff (sec)
1 12/04/2016 22:07:24 -81.30, 75.27 73.45 12/04/2016 22:08:02 -81.31, 75.35 73.42 1.48 38
2 12/04/2016 22:58:03 81.31,-116.88 106.62 12/04/2016 22:57:28 81.31,-116.95 106.60 1.21 35
3 12/07/2016 17:41:45 -81.30, 141.84 73.14 12/07/2016 17:42:17 -81.31, 141.82 73.12 0.65 32
4 12/07/2016 18:32:24 81.31, -50.34 106.93 12/07/2016 18:31:43 81.31, -50.49 106.89 2.52 41
5 12/10/2016 13:16:05 -81.30,-151.62 72.89 12/10/2016 13:16:31 -81.31,-151.80 72.90 2.88 26
6 12/
